TIMESTAMP,CO2_1_1_1,H2O_1_1_1,TAU_1_1_1,TAU_SSITC_TEST_1_1_1,H_1_1_1,H_SSITC_TEST_1_1_1,LE_1_1_1,LE_SSITC_TEST_1_1_1,FC_1_1_1,FC_SSITC_TEST_1_1_1,WD_0_0_1,WS_0_0_1,WS_MAX_0_0_1,U_SIGMA_0_0_1,V_SIGMA_0_0_1,W_SIGMA_0_0_1,USTAR_0_0_1,MO_LENGTH_0_0_1,ZL_0_0_1,FETCH_MAX_0_0_1,FETCH_70_0_0_1,FETCH_80_0_0_1,FETCH_90_0_0_1,PA_0_0_1,RH_0_0_1,TA_0_0_1,VPD_0_0_1,T_SONIC_0_0_1,T_SONIC_SIGMA_0_0_1
[yyyymmddHHMMSS],[mmolCO2 mol-1],[mmolH2O mol-1],[kg m-1 s-2],[#],[W m-2],[#],[W m-2],[#],[umolCO2 m-2 s-1],[#],[Decimal degrees],[m s-1],[m s-1],[m s-1],[m s-1],[m s-1],[m s-1],[m],[#],[m],[m],[m],[m],[kPa],[%],[deg C],[hPa],[deg C],[deg C]
20220630003000,398.06557454759246,13.792247315876802,0.14398048092590665,0,-23.140714419083100,0,44.426539159887326,0,-2.7935533821865914,0,153.24759629387435,2.4006208081051859,6.3831646617065498,1.0067890983936869,0.82909338796915577,0.55392433282495723,0.35973551532367903,167.96216780807347,0.11312071193145629,88.650501778002493,162.08139087758354,193.97002871562225,242.82745863102059,93.955643575308429,57.296206896551723,19.516206896551751,9.6608417352757971,19.957156092602872,0.10094843116563521
20220630010000,400.29607049514709,13.406375612739783,0.39470707669778760,0,-48.817599915091336,0,47.385125075470967,1,0.22954294756002938,2,159.37056311291315,3.1592349159700319,8.2555967518633597,1.2513017414580601,1.0436522183649561,0.82169356088461898,0.59558555801957158,361.01112775133146,5.2629956639695094E-002,96.792636470973562,176.96780989700574,211.78527023740182,265.13002698282469,93.852049539585664,56.726666666666667,19.202999999999975,9.6007400082409688,19.614041576083423,0.17279693646285368
20220630013000,402.73238309493939,13.204328315561293,0.46588406254314912,0,-51.857841751387333,0,32.666113816419930,0,1.6987971730499922,0,160.83684284907324,3.4116970917082203,8.4523192851713276,1.3087694496301949,1.1123377977783413,0.89638492526496039,0.64693384689212663,435.43271466517234,4.3634755405574252E-002,96.459979043372471,176.35960602370602,211.05740553849878,264.21882675136527,93.824216034288213,56.484333333333332,19.023333333333312,9.5469659105314744,19.434282031589134,0.14925820759745728
20220630020000,404.54665565443531,13.633098349628392,0.63200616461756554,0,-55.017557978917360,0,8.8233260635743296,0,4.4939792846814433,0,160.90281292760150,3.9343374556439326,9.8377091545061912,1.5253440165935410,1.3356420786580019,0.99187154238097530,0.75335910422068963,647.81718394314578,2.9329262129711417E-002,100.48290645479381,183.71480037867497,219.85969463854636,275.23824818700245,93.752767462239589,59.662999999999997,18.646333333333303,8.6435799135747935,19.085455094231520,0.14687691984259121
20220630023000,405.91152255749631,14.144838588789939,0.59183125159786443,0,-43.483901494019882,0,-9.7094612644841778,2,3.7742147346705321,0,165.35222439691452,3.9154266549304295,10.416935804713507,1.5838642900569235,1.3216735207386068,1.1028670849411497,0.72906013640032297,742.99899810671241,2.5572039866023005E-002,89.918083427845559,164.39893440792875,196.74353641256872,246.29956115120154,93.765135761501739,61.861666666666665,18.658999999999992,8.1789199137488477,19.159608179728195,0.12121894251721502
20220630030000,406.47493599835110,14.657537560240540,0.81745424196350114,0,-65.029367287690391,0,42.585772056908233,1,9.0897680891078210,0,169.57292564364948,4.0344062079324221,11.328555972387246,1.8311070634424398,1.4179921970443019,1.1312542501941896,0.85671521169049780,806.33473483402395,2.3563415017599312E-002,100.24804300474779,183.28539508613534,219.34580617501842,274.59492081088894,93.780677926236592,64.471333333333334,18.570333333333338,7.5771017690071494,19.128496628748735,0.15244398385607649
20220630033000,407.06994964346353,15.241348158337923,0.69842880047269085,0,-50.747417940972817,1,-21.012040524013852,2,4.6011499764914294,1,162.93841168091100,4.1637939746633199,9.6904952957798276,1.6130990155546836,1.3813990593006444,1.0630209538966426,0.79078748037576874,812.53555120079159,2.3383592227959969E-002,98.825556275433797,180.68463566607610,216.23336139243185,270.69850927922425,93.758409647786451,71.131333333333330,17.623666666666679,5.8011737301548578,18.148648395114492,0.66517341930819074
20220630040000,407.96696874982138,15.825559816748092,0.39977748852730799,0,-103.19478614944033,0,62.600111137376999,0,4.3075035971083748,0,155.41076736180619,4.0304885109741555,9.6885559398229013,1.3831524482350712,1.2527149861881401,0.94044750785278075,0.59731085934390105,172.11598849694431,0.11039067413738451,87.085847016231284,159.22070295202417,190.54651589861862,238.54162683294155,93.688045618923610,79.773666666666671,16.396000000000015,3.7602554255493601,17.171436096191428,0.27932011957825437
20220630043000,409.49637868092435,15.689214945615253,0.64465663127215955,0,-99.257778700411308,0,55.970024178381280,0,5.0681029786076719,0,150.29302561686018,4.5375239821572544,12.185970019574192,1.9367817879245173,1.3539038371255452,1.0171566625762922,0.75884126794379125,366.79403542917038,5.1800188020421037E-002,99.052484689936961,181.09953318289362,216.72988775375802,271.32010136364318,93.647382198784712,78.301000000000002,16.545999999999992,4.0727311772163333,17.191475570678676,0.30499829756053193
20220630050000,412.68147588953366,16.202062376430597,0.76893516145297258,0,-88.232596600352267,0,37.445159089896009,1,4.2860573648661324,1,142.39993318457255,3.5283584064541706,10.845593888392493,1.8734011065211167,1.5772279189920546,1.0485686466773072,0.82772901620449735,535.22989352701666,3.5498764605233962E-002,103.63058492051748,189.46976051457466,226.74691208389044,283.86022716162040,93.568966105468746,86.243333333333339,15.523666666666657,2.4188352567431686,16.378987422519288,0.28011134289613632
20220630053000,413.93106081292160,16.369487602317616,0.52848795790471592,0,-70.209237256656778,0,5.1414825107453224,2,2.2223477684974013,1,132.05554060063363,3.2729043636378994,10.221939482007594,1.6211245194167740,1.2930858887874201,0.88710088766239559,0.68586337131263531,382.74988606320142,4.9640772451758831E-002,101.92168071144711,186.34533859335085,223.00777703267883,279.17927377940975,93.593307061848961,88.510000000000005,15.283666666666647,1.9894088501669103,16.049493676079635,0.22016050815927485
20220630060000,415.61250002496712,16.478532192219298,0.25284021766942422,0,-9.1583373875541429,2,11.860746092922538,1,0.47337072102171601,2,89.509680410989773,1.8920010887343488,5.3810033221705558,0.93171928627990919,0.96000144326728420,0.51915543134203845,0.47416460699358542,969.98796460543008,1.9587871904914598E-002,116.45557535283858,212.91793334576451,254.80838621592054,318.98986287926567,93.651150050781226,89.833333333333329,15.165666666666652,1.7469850513331313,15.927608342488725,0.18784510944339469
20220630063000,417.94189932518611,16.371375523170311,0.37956990106137312,0,-8.6321571713947822,1,-29.645577739606487,2,-2.0063200627261746,2,101.28205047374783,3.1845066341872306,9.1640961470859352,1.2053588046794133,1.2484106337377603,0.72439251137183647,0.58083815514257187,1890.2467907924170,1.0051597544061928E-002,104.93487465170902,191.85441812506699,229.60073819359775,287.43287880364835,93.557048805979747,91.523333333333341,14.759333333333359,1.4189642047255462,15.470668201777244,0.10540340705360211
20220630070000,418.83982578774902,16.624378907439834,0.72003336188852896,0,-27.676351092681884,0,-0.26923820663056597,2,4.0148532670289301,0,144.83964450446055,4.6592596657726393,11.685073778030718,1.8094680565017440,1.4502483249013409,1.1567750414620579,0.80052470328739311,1541.7544090090100,1.2323622938242535E-002,93.272917782781221,170.53264157829017,204.08401732482110,255.48897220018907,93.408973655381942,93.393333333333331,14.658999999999992,1.0987958932917037,15.358549487643813,0.10261215302387214
20220630073000,419.21659049126021,17.194316398494578,0.69742002801092018,0,-48.895702820283113,0,-5.6599168096872932,2,4.6608218731137390,0,156.65993497056431,4.0723729175603545,10.742471147147967,1.6946079852417200,1.3274725402929599,0.98574059377899781,0.78868628367231486,834.23093496719298,2.2775468043207001E-002,104.75342147253052,191.52266384200539,229.20371304799917,286.93585043407660,93.348075431423609,94.329999999999998,15.016999999999996,0.96502815961258648,15.874376787821461,0.24924511231944826
20220630080000,419.85262332379295,17.873073224288468,0.49008008197450115,0,-56.416692515837234,0,7.6889455010095036,2,5.8891673840123140,0,163.04934302671575,3.6841843511236223,8.3630820900358103,1.3773695553634893,1.2457756099189263,0.97414454546162055,0.66204205496386703,427.54086497344537,4.4440196380245649E-002,91.931562109767768,168.08021560457161,201.14908979261347,251.81479120103558,93.296267534939247,94.563333333333333,15.572666666666692,0.95893664929310041,16.556433091905262,0.41189352450732025
20220630083000,419.05374990386724,18.923609939541400,0.42377807165412784,0,-76.719824929240772,0,9.7531130867300071,2,8.4689047965497970,0,170.82511858816929,3.3909027021253144,8.5280706910539106,1.3707506191616008,1.2370667801204500,0.91062365524837885,0.61729688564657847,254.71945174899432,7.4591869091815505E-002,91.744286249820647,167.73781560401619,200.73932444212900,251.30181360675439,93.196760342805490,93.010000000000005,16.710666666666668,1.3257719132913326,17.873198829107082,0.48027808180423026
20220630090000,418.79603093508587,19.514186580977576,0.42023024513406293,0,-85.683785136728360,0,-9.7852623578253830,1,9.6830879017428728,0,175.96967550003473,3.3543828797450845,8.1646871203276579,1.2017052999324962,1.1393195448634972,0.89857721909243393,0.61584451220472136,226.38516931013697,8.3927759304634031E-002,92.552347176974621,169.21520869666810,202.50738664257244,253.51521767581650,93.134856321831620,91.030000000000001,17.525333333333322,1.7913773618238520,18.637189795600079,0.22248882648005489
20220630093000,418.18706061519981,20.050458928766666,0.29358218378117595,0,-56.031208570404054,1,-5.4472073463329576,2,8.1911097277416651,0,191.79846811125901,3.3975050751000526,8.2425837440753540,1.1771375725766482,1.1379194903742937,0.86931331152142699,0.51548053744622602,203.00620255707162,9.3593199422852533E-002,82.429687618774906,150.70775856759965,180.35869570679611,225.78768488350258,93.111451187067672,89.486666666666665,18.223666666666645,2.1939463097270324,19.515144259803378,0.59021885753934122
20220630100000,414.40616365751288,20.166716426211856,0.72894287819299275,0,-95.370758802025762,0,10.922879240049838,2,9.0379905995327956,0,212.17762045487905,4.5607095489432492,12.551809035668839,1.9228939669145098,1.5206161417180979,1.1835999162791424,0.81485853864001900,471.06461202014026,4.0334169698121286E-002,92.887384819012695,169.82776436108907,203.24045932398465,254.43293768337568,93.088431692925340,80.516666666666666,20.006666666666661,4.5438591223230382,21.243039642334111,0.50777375541784842
20220630103000,414.26151370790251,19.793258207009295,0.76938109953060485,0,-111.45346461117268,0,54.581785000071555,0,7.7595613913905890,0,217.86063525157306,4.3426722104610542,11.934281803940690,1.8414345399254310,1.5124070257842697,1.1775529465820354,0.83823673916028685,438.83530009635956,4.3296425779393716E-002,95.403410079477283,174.42786098231795,208.74560009852505,261.32472066933133,93.108662944010419,74.942000000000007,20.870000000000005,6.1637495725846314,22.000731504652322,0.24653554235705166
20220630110000,414.76353696083288,19.262322408535510,0.83032964729294056,0,-91.241468416408409,0,57.702724247876354,0,6.0798031804176080,0,223.17866743718793,3.9196776733406922,11.198909446768845,1.7230427396151173,1.4569719611088949,1.1008610297260000,0.87142011353095150,602.19482496331966,3.1551250878247436E-002,103.86063301188484,189.89036179566980,227.25026439429524,284.49036452428919,93.105074908854178,70.883666666666670,21.333333333333314,7.3686679890342273,22.427593566894643,0.30259220994707686
20220630113000,415.02441839333477,18.653454973857009,0.59710267700540354,0,-58.990244810804718,0,40.807594884478540,0,3.9601832521650611,0,229.70991196777618,4.0242262247369327,11.016431450960667,1.6103204804458076,1.2981032763027516,0.96146232722937386,0.73957813312795906,569.32976635376122,3.3372574424984619E-002,101.50707929021307,185.58731496499377,222.10061635147150,278.04361625414066,93.101092982987694,66.407666666666671,21.874000000000024,8.7872400810478535,22.886050587312980,0.19857290405343328
20220630120000,414.70460226005531,18.216326556482020,1.2900093452813193,0,-71.582691282938598,0,45.129553898706369,0,6.5733520547699884,0,236.70516838475996,5.2303351091999248,15.612094443231108,2.4616269865731422,1.8496996582075869,1.3713349331067510,1.0877630191573904,1492.5257525977152,1.2730098604282593E-002,104.03213235563193,190.20391729294980,227.62551024134794,284.96012779650709,93.090419957465272,63.307000000000002,22.267666666666685,9.8313636221793068,23.197867768181709,0.21300592954389333
20220630123000,414.01781222506929,18.351171254780876,2.1416171129922477,0,-142.14101421098482,0,115.07770613503095,1,6.0946774591026669,0,244.22648081797010,5.7912835313201860,17.870907721539059,2.8786422920084722,2.0808014268977177,1.5536143005467016,1.4010300665658313,1606.3667032120488,1.1827934407509878E-002,115.27584014472606,210.76100112808834,252.22708923953729,315.75838537267600,93.116240856987844,64.388999999999996,22.115000000000009,9.4531857463432090,23.043106864929200,0.32089853519125683
20220630130000,415.42326739940239,19.044000294619387,1.2503055035207460,0,-3.3611821112577154,2,-134.50661854621518,2,-1.2071014638510853,2,247.07405343710019,5.8996880806579250,17.082638175973482,2.6058317626530836,1.9166697291800743,1.3928658053635776,1.0675960101140813,30081.779323700586,6.3161157442008216E-004,101.21690004931091,185.05677476470248,221.46569523358070,277.24877035702207,93.210270490451393,72.777000000000001,20.737000000000023,6.6417153853053561,21.593065076192033,1.1320580845557415
20220630133000,417.19810709391652,20.409492318155856,0.78761919311995143,0,-86.445741882725628,0,-9.9226818732684823,2,-5.2379812421102227E-002,2,236.48941130715875,4.0009814829835308,12.809395034904329,1.8904678548017835,1.4154481615365593,1.1224220619111964,0.84405524812678079,578.38155505790417,3.2850286863138005E-002,99.684272543407388,182.25464287743861,218.11225903899589,273.05066617461688,93.265547724175363,89.756666666666661,18.485000000000014,2.1729238968556182,19.666704110039632,0.31969712539883571
20220630140000,416.62703082982819,20.797109023595070,0.58813028424865721,0,-52.852978500358773,0,-2.9220913570492040,2,-0.59686942989386893,2,219.78618065238126,3.7120214726149401,10.935879405176216,1.6852068156118525,1.1889197212169451,0.93418546428905924,0.72933787374990289,610.12676402516490,3.1141069561761329E-002,102.71915277933766,187.80337187412576,224.75267048287043,281.36367332246050,93.214234094401036,92.746666666666670,18.253666666666675,1.5164950939083064,19.399320153978181,0.14452676219638522
20220630143000,416.58723395754652,20.699727386878770,0.52164481361009452,0,-39.935600153954283,0,34.318147848739109,1,-1.2050870010903805,0,221.37963408399975,3.4912658684318094,9.1066096688459446,1.4760932068508912,1.1666406454298610,0.91950772726050345,0.68684359575834730,674.23742737913608,2.8179984124963076E-002,99.150949096596108,181.27955752187836,216.94533090866500,271.58981062817196,93.185599566729408,92.909999999999997,18.146000000000015,1.4723588940514811,19.328565964846348,0.12570213075634626
20220630150000,416.01156853905752,20.286545892842941,0.32580655982851464,0,-28.276035553856975,1,70.044633153757232,1,-1.1678002082897045,2,222.56930350499772,3.0150966646427171,8.2971406473614859,1.2104567031046800,1.0909143959299659,0.80153542667717059,0.54289046183151612,470.03113286961570,4.0422854299037476E-002,91.682509298822609,167.62486763484381,200.60415457034352,251.13259696711944,93.137980312048541,91.123333333333335,18.125999999999976,1.8410760006394298,19.216336120103563,0.13758064679552470
20220630153000,412.52369717285319,20.034487530850900,0.63596433121370954,0,16.973713673140743,0,115.75545927947853,0,-8.6951391875312467,0,214.23048180978904,3.9108339082969352,11.176393800099682,1.8242971029416049,1.3740405233827304,1.0358019382789390,0.75942665259646081,-2141.9129827788934,-8.8705751133501317E-003,97.683720487321793,178.59699567556095,213.73498951447854,267.57084415561877,93.056502565755210,87.170000000000002,18.620000000000005,2.7447390021686395,19.592821482340469,0.26338342544945514
20220630160000,409.52517979525555,19.778565866754168,0.93003200417756027,0,34.876571344484184,0,139.95670838396836,0,-10.117102820602101,0,225.43144201616104,4.4576086759185856,13.530552102029596,2.2832214872210983,1.6873239115566792,1.2323881372357925,0.91967712995377682,-1850.9274966067039,-1.0265123855382020E-002,99.075255704909907,181.14116586070688,216.77971143596622,271.38247470147462,93.029348943793408,81.978666666666669,19.393333333333317,4.0459203430011899,20.299492530822818,0.42597209037494449
20220630163000,407.87492457221373,19.673444055548131,2.1544766166026399,0,293.52131782232613,1,236.82805342479131,0,-18.319481360270579,0,235.30182509783384,6.0241184164532893,17.638398395942758,2.6529748817897398,2.0518031359738504,1.6195382696413416,1.4039746289364414,-782.32990298408538,-2.4286429455818090E-002,111.69386923171513,204.21201588807560,244.38962654141119,305.94681210177868,93.007846355251928,73.379999999999995,21.096333333333348,6.6396747534065526,21.886108218014556,0.57906980282885412
20220630170000,406.01713819587974,19.823768308720368,2.1133539438085478,0,225.31269957038162,0,255.19199291368508,0,-15.663809759231759,0,238.45468061767227,5.4661053324812769,14.687455316280150,2.7354700095903772,1.8891753588879350,1.5105338020195902,1.3941919529213109,-997.87466046736597,-1.9040467458208764E-002,117.43798706766891,214.71409528462050,256.95793331057092,321.68084076723045,92.983037885089615,67.600666666666669,22.560333333333347,8.8367286378662815,23.348444514209802,0.61505309096804628
20220630173000,405.34521249360870,19.934747418071492,1.6024219059035545,0,200.24753045330831,0,214.65650484802271,0,-11.758719523902759,0,240.10777571475785,5.2615864584958967,14.612642438764935,2.4098008521588410,1.8523103795698306,1.4626868906439945,1.2165618878582489,-745.83807720999414,-2.5474698303249090E-002,108.05408001981256,197.55732035748835,236.42565562425233,295.97686555266375,92.951824238934535,63.474666666666664,23.689000000000021,10.665442858483132,24.498002360844339,0.50451677710302090
20220630180000,406.18770590461349,19.614070415973547,1.4977502633629109,0,200.94024776244203,0,217.42391956460577,0,-9.6912682684689742,0,237.27663619421782,5.7758928110963499,14.945822313111224,2.6001290475744958,2.0791341660714888,1.4750648801000603,1.1782704471531673,-675.18692781188406,-2.8140355236992459E-002,104.61693433801980,191.27312182978091,228.90507499328569,286.56199102725606,92.939999719835072,58.580333333333336,24.754999999999995,12.892633501138018,25.518258199055992,0.42015102337642035
20220630183000,406.56067777389239,19.497397574733828,1.8611635529918560,0,214.11406781069192,0,246.35151603212114,0,-10.588393361146691,0,236.79473605892369,5.8196411175515630,16.041195674886474,2.8412233298869243,2.0967082714561465,1.5612151916640293,1.3147929308482700,-880.39754161544909,-2.1581159762369094E-002,109.13663855231393,199.53658261923627,238.79432704092937,298.94216108956800,92.939505718532999,56.134999999999998,25.370666666666693,14.163738240236585,26.062710230509538,0.49960410549809597
20220630190000,406.00568617338303,19.777956525559517,1.4913963153399259,0,208.94944455488084,0,270.70454257031423,0,-10.976881705321370,0,232.00046689664177,4.8287673786710270,13.314450110477338,2.2799326767178822,1.9820634866533391,1.4381018333802493,1.1782754753380282,-649.36118376077400,-2.9259525322966700E-002,106.76297289441865,195.19676475477058,233.60067346211250,292.44032311024296,92.941634909071169,54.815666666666665,26.013333333333321,15.156236851564032,26.728854014078820,0.41641724601537927
20220630193000,406.79635121249117,19.433875221768318,1.5927069236609117,0,225.62060648215692,0,319.61870259080183,0,-14.314739793698932,0,235.72068352012093,5.5614652783377299,16.002647460293698,2.4782544707625611,2.0490394892997088,1.4758566118027192,1.2182449494143823,-664.66251248454898,-2.8585935934579552E-002,107.40073741681947,196.36280170628115,234.99612188307776,294.18725894335790,92.944993392277965,52.767333333333333,26.361666666666679,16.172576298691347,27.027496502195163,0.36490115490713215
20220630200000,406.16855040976662,19.868689473593030,1.4999309914573631,0,229.03415825386671,0,282.37353767906058,0,-12.968412390489487,0,234.64754797327595,5.0086825318323243,16.419628557526668,2.4657355785946056,1.9863620837147045,1.4398868244100584,1.1829601496032709,-599.50600668379639,-3.1692760019369354E-002,106.99618807012388,195.62315647612510,234.11095545060869,293.07913560757663,92.936441544921863,53.021999999999998,26.653999999999996,16.364779554816600,27.299826571994345,0.43747124245553715
20220630203000,406.28418786866769,19.963883802455765,1.4085370291835937,0,128.99856699600537,0,172.90438310746944,0,-10.486377453028439,0,232.48857809085752,5.6809292382784466,14.369901791352225,2.4850974924984817,1.9411029241073126,1.4206479101946790,1.1455048286984748,-966.36611470832850,-1.9661285418450993E-002,105.40550025105487,192.71487181900761,230.63048150230480,288.72199523236338,92.921641806423608,54.868666666666670,26.151666666666642,15.262727303059256,26.866090271843859,0.37258704042821789
20220630210000,406.24589655263190,20.246453439745959,1.4082052424406735,0,147.22377014610464,0,303.03006179131961,1,-14.774060220324477,0,237.69993008992526,4.6221127887355200,12.437809323247722,2.2313791221199679,1.8877239277524274,1.3339225378922839,1.1458164396215231,-847.50928724769574,-2.2418633383597366E-002,110.87725120663961,202.71897769127673,242.60284114711919,303.70996881579322,92.926967276041680,54.936000000000000,26.370000000000005,15.437604347296483,27.137540457831506,0.32460889289334299
20220630213000,406.21861271727408,20.187956387527446,1.1237751709208901,0,140.18267316717859,0,225.07364488611162,0,-8.1545841031647353,0,241.92183584246558,4.7930893825836298,12.902191669995899,2.1427004584730018,1.6397226884059997,1.2603046775602835,1.0240982422972289,-635.50377623508666,-2.9897540676408957E-002,106.05905615391859,193.90978045040680,232.06048195016686,290.51218610306051,92.930357166015639,53.753333333333330,26.690999999999974,16.145127466164176,27.430770048353452,0.30171922555565767
20220630220000,405.60217151043673,20.208115132946251,0.99241052995716950,0,116.57069324371771,0,173.93909450078226,0,-7.1718840372509876,0,239.01366384890721,4.5639996287479123,11.882013525671496,1.9924574683985206,1.7051357171442132,1.1935188173858959,0.96271421591243656,-634.84757350889265,-2.9928443917623098E-002,105.43611405219481,192.77084361126248,230.69746544223867,288.80585117655716,92.923044292104237,53.233333333333334,26.872000000000014,16.501311823521561,27.625641225408003,0.29547158151593600
20220630223000,404.49767341495476,20.699392851310744,1.0840995789934853,0,111.27124752926063,0,99.459778349750053,0,-6.5369595691393672,0,229.27561396871744,4.3043170454092650,11.772673438922471,2.0535324022179320,1.6581828267485654,1.1637222343735243,1.0060451820382132,-758.97586223180463,-2.5033734200886965E-002,111.44726692796203,203.76114822704412,243.85005310436389,305.27133018670872,92.910090025193767,55.142000000000003,26.678999999999974,15.649279956361836,27.512924276403510,0.27995909226481724
20220630230000,405.23233061176802,20.395677800556960,1.2127945063247958,0,76.714998507910764,0,152.42463895755489,0,-3.3348146850416014,0,234.16032205566952,4.6637282693365840,12.746303979116172,2.2365491450202777,1.7165749916565545,1.2107780666382366,1.0638054678615243,-1301.3515236760627,-1.4600205750963220E-002,112.89976510083073,206.41677813758031,247.02816384993264,309.24994771182043,92.896474356119796,54.861666666666665,26.512000000000000,15.593025026883325,27.344854317559168,0.18541668774792214